This is the latest recevied weather packets stored in our database for station/object WW6Q. If no packets are shown the sender has not sent any weather packets the latest 10 day(s).
| Time | Temp. | Humidity | Pressure | Rain* | Wind** | Luminosity | Snow |
|---|---|---|---|---|---|---|---|
| 1788358958 | 30° C | 67% | 1015.4 hPa | 0 mm | - | 151 W/m² | - |
| 1788358658 | 30° C | 65% | 1015.5 hPa | 0 mm | - | 362 W/m² | - |
| 1788358354 | 30° C | 66% | 1015.6 hPa | 0 mm | - | 349 W/m² | - |
| 1788358049 | 30° C | 65% | 1015.4 hPa | 0 mm | - | 128 W/m² | - |
| 1788357744 | 29.44° C | 67% | 1015.4 hPa | 0 mm | - | 184 W/m² | - |
| 1788357443 | 29.44° C | 68% | 1015.5 hPa | 0 mm | - | 306 W/m² | - |
| 1788357139 | 29.44° C | 69% | 1015.3 hPa | 0 mm | - | 115 W/m² | - |
| 1788356838 | 29.44° C | 68% | 1015.6 hPa | 0 mm | - | 111 W/m² | - |
| 1788356534 | 28.89° C | 69% | 1015.5 hPa | 0 mm | - | 114 W/m² | - |
| 1788356229 | 28.89° C | 68% | 1015.5 hPa | 0 mm | - | 105 W/m² | - |
| 1788355928 | 28.89° C | 70% | 1015.7 hPa | 0 mm | - | 218 W/m² | - |
| 1788355624 | 28.33° C | 71% | 1015.5 hPa | 0 mm | - | 214 W/m² | - |
| 1788355319 | 28.33° C | 70% | 1015.8 hPa | 0 mm | - | 99 W/m² | - |
| 1788355014 | 28.33° C | 72% | 1015.7 hPa | 0 mm | - | 193 W/m² | - |
| 1788354710 | 27.78° C | 72% | 1015.6 hPa | 0 mm | - | 166 W/m² | - |
| 1788354406 | 27.78° C | 73% | 1015.6 hPa | 0 mm | - | 147 W/m² | - |
| 1788354101 | 27.78° C | 74% | 1015.7 hPa | 0 mm | - | 147 W/m² | - |
| 1788353797 | 27.78° C | 75% | 1015.7 hPa | 0 mm | - | 142 W/m² | - |
| 1788353492 | 27.22° C | 75% | 1015.6 hPa | 0 mm | - | 122 W/m² | - |
| 1788353189 | 27.78° C | 75% | 1015.9 hPa | 0 mm | - | 117 W/m² | - |
| 1788352888 | 27.22° C | 76% | 1015.8 hPa | 0 mm | - | 105 W/m² | - |
| 1788352585 | 26.67° C | 77% | 1015.7 hPa | 0 mm | - | 102 W/m² | - |
| 1788352285 | 27.22° C | 76% | 1015.8 hPa | 0 mm | - | 90 W/m² | - |
| 1788351985 | 27.22° C | 77% | 1015.6 hPa | 0 mm | - | 85 W/m² | - |
| 1788351680 | 26.67° C | 78% | 1015.8 hPa | 0 mm | - | 77 W/m² | - |
* Rain latest hour (hover to see other rain measurements)
** Current wind speed in m/s (hover to see current wind gust speed)